Location: Prairie State College
(41.5244°N, 87.6382°W)
Time: 21:51:24
(UTC-06:00)

Amateur Radio Satellites - All Passes

Search period start: 13 February 2016 21:21
Search period end: 14 February 2016 21:21
Location: Prairie State College, 41.5244°N, 87.6382°W

Satellite Date Start Highest point End Downlink Frequencies (MHz)
Time Altitude Azimuth
UNISAT 6 13 Feb 21:24:15 21:27:25 19° 94° (E) 21:30:38 437.425
AISAT 13 Feb 21:26:44 21:30:01 20° 65° (ENE) 21:33:17 437.250
ISS 13 Feb 21:28:07 21:30:37 21° 227° (SW) 21:33:06 145.825
CUBEBUG 1 13 Feb 21:33:47 21:36:53 19° 65° (ENE) 21:40:01 437.445
DX 1 13 Feb 21:34:47 21:38:20 25° 67° (ENE) 21:41:54 434.975-435.025
UWE-3 13 Feb 21:36:54 21:39:12 14° 268° (W) 21:41:30 435.000/436.395/437.385
AIST 1 13 Feb 21:47:53 21:51:36 28° 270° (W) 21:55:16
DELFI C3 13 Feb 21:48:02 21:50:58 20° 266° (W) 21:53:56 145.870
RS-15 13 Feb 21:53:27 22:02:51 27° 259° (WSW) 22:12:21 29.354- 29.394
HUMSAT D 13 Feb 21:59:43 22:03:28 35° 263° (W) 22:07:14 437.325/437.525
ESTCUBE 1 13 Feb 22:04:52 22:09:17 53° 72° (ENE) 22:13:42 437.505/2401.250
ANTELSAT 13 Feb 22:08:18 22:12:38 57° 101° (E) 22:17:03 437.575/2403.000
PHONESAT 2.4 13 Feb 22:12:38 22:14:51 17° 151° (SSE) 22:17:05 2401.200-2431.200
TIGRISAT 13 Feb 22:13:37 22:17:58 63° 101° (E) 22:22:23 435.000
POLYITAN 1 13 Feb 22:21:02 22:23:58 18° 93° (E) 22:26:54 437.675
QB50P2 13 Feb 22:21:23 22:24:25 19° 93° (E) 22:27:26 145.880/145.840
50 SAT 13 Feb 22:41:06 22:44:42 49° 261° (W) 22:48:20 437.505
VELOX 1 13 Feb 22:44:12 22:48:38 65° 258° (WSW) 22:53:06 145.980
Cosmos 2499 13 Feb 22:44:22 22:47:09 12° 287° (WNW) 22:49:52 435.465 / 435.565
TISAT 1 13 Feb 22:45:38 22:47:59 15° 64° (ENE) 22:50:19 437.305
POPSAT HIP 1 13 Feb 22:49:17 22:53:11 36° 98° (E) 22:57:04 437.405
UKube-1 13 Feb 22:49:56 22:54:12 60° 259° (WSW) 22:58:31 .
DUCHIFAT 1 13 Feb 22:50:35 22:54:25 35° 97° (E) 22:58:15 145.980
NANOSAT C BR1 13 Feb 22:51:08 22:55:03 37° 98° (E) 22:58:56 145.865
SPROUT 13 Feb 22:51:42 22:55:46 44° 72° (ENE) 22:59:51 437.525
UNISAT 6 13 Feb 23:00:12 23:04:17 39° 289° (WNW) 23:08:24 437.425
QB50P1 13 Feb 23:01:21 23:05:28 51° 100° (E) 23:09:33 145.935-145.965
AISAT 13 Feb 23:02:02 23:06:14 39° 262° (W) 23:10:26 437.250
BEESAT 3 13 Feb 23:03:50 23:05:25 12° 39° (NE) 23:06:57 437.485
CUBEBUG 1 13 Feb 23:08:41 23:12:52 42° 261° (W) 23:17:06 437.445
DX 1 13 Feb 23:10:31 23:14:24 30° 263° (W) 23:18:17 434.975-435.025
CUSAT 1 13 Feb 23:22:15 23:27:21 19° 82° (E) 23:32:20 437.405
Cosmos 2491 13 Feb 23:27:52 23:31:28 13° 56° (NE) 23:35:04 435.465 / 435.565
BUGSAT 1 13 Feb 23:32:59 23:36:57 54° 101° (E) 23:40:53 437.445
BEESAT 2 13 Feb 23:35:32 23:37:59 15° 42° (NE) 23:40:25 435.950
ESTCUBE 1 13 Feb 23:43:51 23:46:24 15° 269° (W) 23:48:59 437.505/2401.250
ANTELSAT 13 Feb 23:46:34 23:48:55 14° 296° (WNW) 23:51:16 437.575/2403.000
PHONESAT 2.4 13 Feb 23:48:28 23:51:42 53° 167° (SSE) 23:54:55 2401.200-2431.200
TIGRISAT 13 Feb 23:52:07 23:54:10 13° 297° (WNW) 23:56:14 435.000
ITUPSAT 1 13 Feb 23:55:12 23:58:16 17° 62° (ENE) 00:01:19 437.325
POLYITAN 1 13 Feb 23:56:02 23:59:55 37° 289° (WNW) 00:03:48 437.675
QB50P2 13 Feb 23:56:29 00:00:21 36° 289° (WNW) 00:04:12 145.880/145.840
BEESAT 14 Feb 00:00:18 00:03:39 19° 64° (ENE) 00:07:01 436.000
TISAT 1 14 Feb 00:19:07 00:23:14 51° 260° (W) 00:27:21 437.305
JAS-2 14 Feb 00:21:40 00:24:34 14° 88° (E) 00:27:23 435.910
POPSAT HIP 1 14 Feb 00:25:43 00:28:44 19° 294° (WNW) 00:31:45 437.405
DUCHIFAT 1 14 Feb 00:26:51 00:29:55 20° 294° (WNW) 00:32:57 145.980
NANOSAT C BR1 14 Feb 00:27:35 00:30:32 19° 294° (WNW) 00:33:29 145.865
SPROUT 14 Feb 00:29:17 00:31:58 16° 268° (W) 00:34:39 437.525
DANDE 14 Feb 00:30:42 00:37:51 36° 87° (E) 00:45:17 436.750
Oscar 19 14 Feb 00:36:58 00:41:25 29° 96° (E) 00:45:50 437.125/150
QB50P1 14 Feb 00:38:32 00:40:50 15° 296° (WNW) 00:43:09 145.935-145.965
BEESAT 3 14 Feb 00:39:47 00:43:46 90° 234° (SW) 00:47:42 437.485
SWISSCUBE 14 Feb 00:51:35 00:56:18 67° 74° (ENE) 01:01:04 437.505
CUSAT 1 14 Feb 01:00:33 01:08:42 86° 98° (E) 01:16:31 437.405
BUGSAT 1 14 Feb 01:10:07 01:11:52 13° 297° (WNW) 01:13:37 437.445
BEESAT 2 14 Feb 01:12:19 01:16:17 63° 240° (WSW) 01:20:11 435.950
Cosmos 2491 14 Feb 01:21:34 01:30:18 65° 79° (E) 01:39:00 435.465 / 435.565
PHONESAT 2.4 14 Feb 01:25:34 01:28:50 74° 185° (S) 01:32:07 2401.200-2431.200
ITUPSAT 1 14 Feb 01:30:58 01:35:38 56° 259° (W) 01:40:22 437.325
STARS 14 Feb 01:35:10 01:37:11 13° 62° (ENE) 01:39:13 437.465
BEESAT 14 Feb 01:36:29 01:41:04 48° 260° (W) 01:45:42 436.000
Gurwin Techsat 1B 14 Feb 01:44:11 01:49:20 48° 99° (E) 01:54:27 435.225
ITAMSAT 1 14 Feb 01:55:44 02:00:23 31° 96° (E) 02:05:00 435.822/435.867
KKS-1 14 Feb 02:01:56 02:06:09 44° 71° (ENE) 02:10:24 437.445
JAS-2 14 Feb 02:04:52 02:10:20 64° 288° (WNW) 02:15:27 435.910
AIST 2 14 Feb 02:05:33 02:09:35 47° 53° (NE) 02:13:34 435.215
YUBILEINY 14 Feb 02:09:15 02:17:43 55° 90° (E) 02:26:15 435.215
DANDE 14 Feb 02:12:34 02:20:28 55° 285° (WNW) 02:28:45 436.750
Oscar 19 14 Feb 02:16:09 02:20:44 34° 292° (WNW) 02:25:17 437.125/150
MOZHAYETS 4 14 Feb 02:29:05 02:33:10 33° 69° (ENE) 02:37:17
SWISSCUBE 14 Feb 02:32:24 02:34:33 13° 270° (W) 02:36:43 437.505
CUSAT 1 14 Feb 02:45:47 02:51:46 22° 295° (WNW) 02:57:33 437.405
Cosmos 2504 14 Feb 02:45:54 02:51:50 21° 78° (ENE) 02:57:50 435.465 / 435.565
AO-7 14 Feb 03:00:47 03:08:24 38° 98° (E) 03:15:55 29.400- 29.500
PHONESAT 2.4 14 Feb 03:02:53 03:05:55 35° 200° (SSW) 03:08:57 2401.200-2431.200
SO-50 14 Feb 03:03:20 03:07:51 38° 115° (ESE) 03:12:24 436.795
STARS 14 Feb 03:08:40 03:13:02 64° 259° (WSW) 03:17:24 437.465
Cosmos 2491 14 Feb 03:19:29 03:26:24 27° 278° (W) 03:33:20 435.465 / 435.565
HORYU 2 14 Feb 03:21:01 03:23:56 17° 93° (E) 03:26:48 437.375
CUBESAT XI-V 14 Feb 03:24:25 03:26:55 14° 62° (ENE) 03:29:27 437.345
Gurwin Techsat 1B 14 Feb 03:24:51 03:28:57 23° 296° (WNW) 03:33:04 435.225
M-CUBED/EXP-1 PRIME 14 Feb 03:34:23 03:36:51 18° 101° (E) 03:39:26 437.505
ITAMSAT 1 14 Feb 03:35:10 03:39:49 33° 293° (WNW) 03:44:27 435.822/435.867
AUBIESAT-1 14 Feb 03:39:59 03:42:26 17° 101° (E) 03:44:59 437.475
KKS-1 14 Feb 03:39:59 03:42:56 17° 267° (W) 03:45:54 437.445
AIST 2 14 Feb 03:45:07 03:47:42 16° 250° (WSW) 03:50:15 435.215
DANDE 14 Feb 04:02:03 04:05:20 13° 305° (NW) 04:08:37 436.750
MOZHAYETS 4 14 Feb 04:06:41 04:10:22 24° 266° (W) 04:14:06
YUBILEINY 14 Feb 04:07:10 04:14:53 33° 290° (WNW) 04:22:42 435.215
Cosmos 2504 14 Feb 04:35:20 04:44:02 85° 277° (W) 04:53:01 435.465 / 435.565
SO-50 14 Feb 04:44:01 04:48:24 31° 313° (NW) 04:52:49 436.795
AO-7 14 Feb 04:53:23 05:01:18 50° 297° (WNW) 05:09:10 29.400- 29.500
HORYU 2 14 Feb 04:56:27 05:00:43 45° 289° (WNW) 05:04:58 437.375
CUBESAT XI-V 14 Feb 04:59:05 05:03:45 65° 259° (W) 05:08:28 437.345
M-CUBED/EXP-1 PRIME 14 Feb 05:08:30 05:11:32 28° 294° (WNW) 05:14:42 437.505
AUBIESAT-1 14 Feb 05:13:56 05:17:03 30° 293° (WNW) 05:20:19 437.475
LilacSat-2 14 Feb 05:35:15 05:38:25 25° 96° (E) 05:41:35 437.200
O/OREOS (USA 219) 14 Feb 05:36:05 05:38:05 13° 98° (E) 05:40:05 437.305
CUTE-I 14 Feb 05:47:00 05:52:08 43° 99° (E) 05:57:14 437.470
STRAND 1 14 Feb 05:56:44 06:01:47 65° 73° (ENE) 06:06:53 437.568
Cubesat XI-IV 14 Feb 06:02:09 06:07:30 60° 101° (ESE) 06:12:48 437.490
PRISM 14 Feb 06:04:43 06:07:55 22° 66° (ENE) 06:11:09 437.425
DOVE 4 14 Feb 06:28:57 06:31:00 13° 91° (E) 06:33:01 437.250
BRITE-PL 14 Feb 06:29:15 06:33:49 61° 101° (E) 06:38:03 437.365/2234.400
Cosmos 2504 14 Feb 06:33:00 06:38:50 19° 299° (WNW) 06:44:45 435.465 / 435.565
AO-7 14 Feb 06:49:36 06:52:05 12° 318° (NW) 06:54:36 29.400- 29.500
LilacSat-2 14 Feb 07:09:41 07:12:38 22° 291° (WNW) 07:15:35 437.200
GOMX 1 14 Feb 07:10:18 07:14:39 83° 102° (ESE) 07:18:49 467.674
O/OREOS (USA 219) 14 Feb 07:12:29 07:16:54 60° 294° (WNW) 07:21:24 437.305
SEEDS 14 Feb 07:14:52 07:17:01 14° 91° (E) 07:19:10 437.485
CUTE 1.7 + AOD 2 14 Feb 07:16:20 07:19:25 19° 93° (E) 07:22:30 437.475
CUTE-I 14 Feb 07:27:34 07:31:55 26° 296° (WNW) 07:36:16 437.470
Cosmos 2499 14 Feb 07:32:58 07:38:41 19° 78° (ENE) 07:44:24 435.465 / 435.565
GONETS M04 14 Feb 07:35:46 07:43:51 46° 88° (E) 07:52:00
STRAND 1 14 Feb 07:38:31 07:41:24 15° 270° (W) 07:44:18 437.568
PRISM 14 Feb 07:39:20 07:43:04 32° 263° (W) 07:46:51 437.425
Cubesat XI-IV 14 Feb 07:43:20 07:47:05 19° 298° (WNW) 07:50:49 437.490
HO-68 14 Feb 07:46:41 07:53:37 48° 100° (E) 08:00:29 435.675
CUBEBUG 2 14 Feb 07:58:15 08:00:55 16° 93° (E) 08:03:36 437.445
PCSat 14 Feb 08:00:33 08:01:39 11° 101° (E) 08:02:44 145.827
CANX-2 14 Feb 08:01:22 08:05:41 69° 101° (E) 08:09:58 2200.000
DOVE 4 14 Feb 08:05:01 08:09:03 47° 287° (WNW) 08:13:01 437.250
AO-85 14 Feb 08:05:32 08:09:57 27° 111° (ESE) 08:14:30 145.980
BRITE-PL 14 Feb 08:09:29 08:11:41 13° 299° (WNW) 08:13:49 437.365/2234.400
CINEMA 3 14 Feb 08:23:11 08:27:21 88° 96° (E) 08:31:36 145.822/145.860
UNISAT 6 14 Feb 08:23:59 08:26:48 18° 65° (ENE) 08:29:39 437.425
COMPASS 1 14 Feb 08:25:43 08:29:56 63° 100° (E) 08:34:07 437.405
ZACube-1 14 Feb 08:31:15 08:34:18 19° 94° (E) 08:37:23 437.345
FUNcube-1 14 Feb 08:37:31 08:40:48 21° 94° (E) 08:44:05 145.935
AIST 1 14 Feb 08:41:20 08:43:38 14° 85° (E) 08:45:56
SEEDS 14 Feb 08:48:53 08:53:01 52° 287° (WNW) 08:57:10 437.485
AAUSAT CUBESAT 2 14 Feb 08:49:37 08:53:51 85° 285° (WNW) 08:58:03 437.432
CUTE 1.7 + AOD 2 14 Feb 08:51:25 08:55:23 37° 289° (WNW) 08:59:20 437.475
Oscar 11 14 Feb 09:02:22 09:06:39 53° 100° (E) 09:10:54 145.826/435.025
ANTELSAT 14 Feb 09:07:22 09:11:30 50° 73° (ENE) 09:15:38 437.575/2403.000
TIGRISAT 14 Feb 09:12:29 09:16:39 54° 73° (ENE) 09:20:48 435.000
POLYITAN 1 14 Feb 09:14:40 09:17:05 15° 64° (ENE) 09:19:32 437.675
QB50P2 14 Feb 09:14:56 09:17:29 16° 64° (ENE) 09:20:01 145.880/145.840
Cosmos 2499 14 Feb 09:21:46 09:30:34 89° 271° (W) 09:39:31 435.465 / 435.565
UWE-3 14 Feb 09:23:44 09:27:59 78° 285° (WNW) 09:32:20 435.000/436.395/437.385
DELFI C3 14 Feb 09:24:39 09:28:37 50° 99° (E) 09:32:33 145.870
GONETS M04 14 Feb 09:32:45 09:40:44 40° 288° (WNW) 09:48:49
CUBEBUG 2 14 Feb 09:33:44 09:37:44 43° 288° (WNW) 09:41:49 437.445
HO-68 14 Feb 09:34:46 09:41:07 35° 298° (WNW) 09:47:26 435.675
PCSat 14 Feb 09:38:45 09:44:09 84° 117° (ESE) 09:49:37 145.827
CANX-2 14 Feb 09:39:28 09:40:57 12° 298° (WNW) 09:42:28 2200.000
POPSAT HIP 1 14 Feb 09:42:06 09:45:44 28° 69° (ENE) 09:49:21 437.405
HUMSAT D 14 Feb 09:42:44 09:46:33 33° 97° (E) 09:50:24 437.325/437.525
DUCHIFAT 1 14 Feb 09:42:52 09:46:25 27° 69° (ENE) 09:49:58 145.980
NANOSAT C BR1 14 Feb 09:43:37 09:47:14 29° 69° (ENE) 09:50:53 145.865
AO-85 14 Feb 09:45:01 09:50:14 49° 309° (NW) 09:55:35 145.980
QB50P1 14 Feb 09:53:55 09:57:50 38° 71° (ENE) 10:01:45 145.935-145.965
UNISAT 6 14 Feb 09:59:10 10:03:14 42° 262° (W) 10:07:18 437.425
ESTCUBE 1 14 Feb 09:59:46 10:01:04 11° 89° (E) 10:02:20 437.505/2401.250
RS-15 14 Feb 10:02:50 10:13:28 55° 112° (ESE) 10:24:38 29.354- 29.394
COMPASS 1 14 Feb 10:03:14 10:04:58 12° 297° (WNW) 10:06:43 437.405
ZACube-1 14 Feb 10:06:47 10:10:42 37° 289° (WNW) 10:14:42 437.345
FUNcube-1 14 Feb 10:13:17 10:17:06 33° 289° (WNW) 10:20:59 145.935
50 SAT 14 Feb 10:13:27 10:15:39 15° 93° (E) 10:17:51 437.505
AIST 1 14 Feb 10:16:29 10:20:45 49° 281° (W) 10:25:03
BUGSAT 1 14 Feb 10:22:44 10:26:37 39° 71° (ENE) 10:30:28 437.445
VELOX 1 14 Feb 10:34:53 10:38:23 23° 95° (E) 10:41:52 145.980
JAS-2 14 Feb 10:36:36 10:38:13 11° 54° (NE) 10:39:49 435.910
UKube-1 14 Feb 10:37:36 10:40:57 22° 95° (E) 10:44:16 .
Oscar 11 14 Feb 10:39:52 10:42:20 15° 296° (WNW) 10:44:47 145.826/435.025
ANTELSAT 14 Feb 10:46:17 10:48:31 14° 269° (W) 10:50:44 437.575/2403.000
POLYITAN 1 14 Feb 10:48:26 10:52:31 49° 260° (W) 10:56:38 437.675
QB50P2 14 Feb 10:48:50 10:52:55 47° 261° (W) 10:57:00 145.880/145.840
TIGRISAT 14 Feb 10:51:45 10:53:41 13° 269° (W) 10:55:35 435.000
AISAT 14 Feb 10:52:03 10:56:09 36° 98° (E) 11:00:11 437.250
CUBEBUG 1 14 Feb 10:57:11 11:01:09 33° 97° (E) 11:05:04 437.445
DX 1 14 Feb 10:58:03 11:02:12 43° 99° (E) 11:06:19 434.975-435.025
DELFI C3 14 Feb 11:01:02 11:03:06 14° 296° (WNW) 11:05:09 145.870
DANDE 14 Feb 11:13:24 11:18:16 22° 61° (ENE) 11:22:15 436.750
POPSAT HIP 1 14 Feb 11:18:03 11:21:30 24° 265° (W) 11:24:57 437.405
DUCHIFAT 1 14 Feb 11:18:34 11:22:04 25° 264° (W) 11:25:35 145.980
Cosmos 2499 14 Feb 11:18:47 11:24:57 20° 298° (WNW) 11:31:10 435.465 / 435.565
HUMSAT D 14 Feb 11:18:50 11:22:00 21° 293° (WNW) 11:25:11 437.325/437.525
NANOSAT C BR1 14 Feb 11:19:34 11:22:58 24° 265° (W) 11:26:24 145.865
PCSat 14 Feb 11:24:37 11:28:15 18° 318° (NW) 11:31:55 145.827
AO-85 14 Feb 11:29:57 11:32:06 12° 329° (NNW) 11:34:16 145.980
Gurwin Techsat 1B 14 Feb 11:30:27 11:31:36 11° 57° (ENE) 11:32:44 435.225
QB50P1 14 Feb 11:30:53 11:33:46 18° 267° (W) 11:36:39 145.935-145.965
ESTCUBE 1 14 Feb 11:33:49 11:38:21 71° 285° (WNW) 11:42:51 437.505/2401.250
SO-50 14 Feb 11:34:38 11:39:07 36° 48° (NE) 11:43:27 436.795
CUSAT 1 14 Feb 11:39:46 11:45:01 56° 76° (ENE) 11:48:55 437.405
50 SAT 14 Feb 11:46:16 11:49:49 37° 288° (WNW) 11:53:20 437.505
Oscar 19 14 Feb 11:53:44 11:58:37 44° 70° (ENE) 12:03:30 437.125/150
BUGSAT 1 14 Feb 11:59:22 12:02:08 17° 267° (W) 12:04:55 437.445
TISAT 1 14 Feb 12:03:28 12:06:48 23° 95° (E) 12:10:07 437.305
VELOX 1 14 Feb 12:10:58 12:14:55 32° 291° (WNW) 12:18:49 145.980
UKube-1 14 Feb 12:13:11 12:17:04 33° 291° (WNW) 12:20:56 .
SPROUT 14 Feb 12:13:17 12:17:34 86° 103° (ESE) 12:21:49 437.525
AO-7 14 Feb 12:13:37 12:16:44 13° 43° (NE) 12:19:52 29.400- 29.500
JAS-2 14 Feb 12:14:48 12:22:06 58° 71° (ENE) 12:28:43 435.910
RS-15 14 Feb 12:15:16 12:26:05 50° 316° (NW) 12:37:31 29.354- 29.394
YUBILEINY 14 Feb 12:19:39 12:26:57 28° 67° (ENE) 12:34:09 435.215
AISAT 14 Feb 12:29:06 12:32:24 21° 294° (WNW) 12:35:41 437.250
Cosmos 2491 14 Feb 12:32:15 12:35:54 13° 74° (ENE) 12:39:33 435.465 / 435.565
ISS 14 Feb 12:32:43 12:34:01 12° 130° (SE) 12:35:18 145.825
CUBEBUG 1 14 Feb 12:33:53 12:37:15 22° 294° (WNW) 12:40:35 437.445
DX 1 14 Feb 12:35:07 12:38:04 18° 296° (WNW) 12:41:00 434.975-435.025
SWISSCUBE 14 Feb 12:52:49 12:55:55 17° 92° (E) 12:59:01 437.505
DANDE 14 Feb 12:55:40 13:01:54 53° 268° (W) 13:06:33 436.750
Gurwin Techsat 1B 14 Feb 13:05:20 13:10:37 76° 74° (ENE) 13:15:57 435.225
ITAMSAT 1 14 Feb 13:13:42 13:18:40 48° 70° (ENE) 13:23:41 435.822/435.867
SO-50 14 Feb 13:15:24 13:19:29 29° 247° (WSW) 13:23:27 436.795
CUSAT 1 14 Feb 13:24:21 13:26:09 12° 282° (WNW) 13:27:48 437.405
ITUPSAT 1 14 Feb 13:31:22 13:35:50 37° 98° (E) 13:40:16 437.325
Oscar 19 14 Feb 13:34:04 13:38:07 23° 266° (W) 13:42:10 437.125/150
BEESAT 14 Feb 13:36:19 13:40:53 42° 99° (E) 13:45:25 436.000
TISAT 1 14 Feb 13:38:51 13:42:29 29° 291° (WNW) 13:46:05 437.305
AO-7 14 Feb 13:59:36 14:07:37 53° 64° (ENE) 14:15:39 29.400- 29.500
JAS-2 14 Feb 14:01:08 14:07:19 28° 266° (W) 14:13:05 435.910
ISS 14 Feb 14:06:46 14:10:01 77° 325° (NW) 14:13:17 145.825
YUBILEINY 14 Feb 14:15:42 14:24:27 67° 268° (W) 14:33:06 435.215
HORYU 2 14 Feb 14:19:42 14:22:31 17° 64° (ENE) 14:25:20 437.375
M-CUBED/EXP-1 PRIME 14 Feb 14:21:59 14:24:49 23° 65° (ENE) 14:27:32 437.505
Cosmos 2491 14 Feb 14:22:27 14:31:06 74° 94° (E) 14:39:47 435.465 / 435.565
AUBIESAT-1 14 Feb 14:27:08 14:29:53 22° 64° (ENE) 14:32:33 437.475
Cosmos 2504 14 Feb 14:28:57 14:36:45 37° 71° (ENE) 14:44:00 435.465 / 435.565
SWISSCUBE 14 Feb 14:29:20 14:34:01 52° 288° (WNW) 14:38:39 437.505
BEESAT 3 14 Feb 14:32:43 14:34:54 14° 110° (ESE) 14:37:07 437.485
RS-15 14 Feb 14:33:34 14:42:27 24° 349° (NNW) 14:51:39 29.354- 29.394
Gurwin Techsat 1B 14 Feb 14:48:40 14:51:09 13° 271° (W) 14:53:37 435.225
ITAMSAT 1 14 Feb 14:54:32 14:58:22 21° 267° (W) 15:02:15 435.822/435.867
STARS 14 Feb 14:58:34 15:01:59 22° 94° (E) 15:05:23 437.465
BEESAT 2 14 Feb 15:05:27 15:08:31 21° 112° (ESE) 15:11:35 435.950
ITUPSAT 1 14 Feb 15:09:35 15:13:29 25° 294° (WNW) 15:17:21 437.325
BEESAT 14 Feb 15:14:45 15:18:23 22° 295° (WNW) 15:22:02 436.000
KKS-1 14 Feb 15:28:53 15:33:20 89° 108° (ESE) 15:37:45 437.445
CUTE-I 14 Feb 15:34:47 15:35:08 10° 56° (NE) 15:35:28 437.470
O/OREOS (USA 219) 14 Feb 15:43:22 15:47:19 28° 59° (ENE) 15:51:15 437.305
ISS 14 Feb 15:44:29 15:46:52 19° 344° (NNW) 15:49:17 145.825
Cubesat XI-IV 14 Feb 15:47:42 15:50:20 14° 59° (ENE) 15:52:58 437.490
AO-7 14 Feb 15:53:08 16:00:36 36° 262° (W) 16:08:09 29.400- 29.500
HORYU 2 14 Feb 15:54:26 15:58:42 48° 260° (W) 16:02:59 437.375
M-CUBED/EXP-1 PRIME 14 Feb 15:56:50 15:59:26 19° 259° (WSW) 16:01:57 437.505
MOZHAYETS 4 14 Feb 16:00:18 16:04:59 79° 102° (ESE) 16:09:38
AUBIESAT-1 14 Feb 16:01:44 16:04:25 20° 259° (WSW) 16:07:01 437.475
BRITE-PL 14 Feb 16:05:09 16:06:37 11° 59° (ENE) 16:08:04 437.365/2234.400
BEESAT 3 14 Feb 16:08:23 16:12:15 50° 306° (NW) 16:16:08 437.485
YUBILEINY 14 Feb 16:16:48 16:19:23 12° 288° (WNW) 16:21:59 435.215
LilacSat-2 14 Feb 16:18:45 16:20:45 14° 66° (ENE) 16:22:46 437.200
Cosmos 2491 14 Feb 16:22:05 16:28:49 24° 295° (WNW) 16:35:35 435.465 / 435.565
Cosmos 2504 14 Feb 16:22:18 16:30:15 47° 272° (W) 16:37:41 435.465 / 435.565
STARS 14 Feb 16:34:29 16:38:25 33° 291° (WNW) 16:42:20 437.465
AO-85 14 Feb 16:37:05 16:41:27 26° 43° (NE) 16:45:32 145.980
BEESAT 2 14 Feb 16:42:29 16:46:12 35° 309° (NW) 16:49:56 435.950
GOMX 1 14 Feb 16:43:19 16:45:14 12° 61° (ENE) 16:47:07 467.674
PCSat 14 Feb 16:44:51 16:47:31 14° 38° (NE) 16:50:10 145.827
RS-15 14 Feb 16:50:25 17:00:26 29° 24° (NNE) 17:10:38 29.354- 29.394
CUBESAT XI-V 14 Feb 16:55:51 17:00:02 31° 96° (E) 17:04:09 437.345
CUTE-I 14 Feb 17:08:54 17:14:12 72° 73° (ENE) 17:19:33 437.470
ISS 14 Feb 17:22:25 17:24:16 14° 4° (N) 17:26:06 145.825
O/OREOS (USA 219) 14 Feb 17:22:40 17:26:41 30° 256° (WSW) 17:30:42 437.305
Cubesat XI-IV 14 Feb 17:24:19 17:29:39 84° 256° (WSW) 17:35:03 437.490
DOVE 4 14 Feb 17:34:01 17:37:18 18° 66° (ENE) 17:40:29 437.250
BRITE-PL 14 Feb 17:38:36 17:44:15 74° 75° (ENE) 17:49:40 437.365/2234.400
MOZHAYETS 4 14 Feb 17:39:48 17:41:30 12° 299° (WNW) 17:43:11
AIST 2 14 Feb 17:41:05 17:45:15 83° 303° (WNW) 17:49:27 435.215
GONETS M04 14 Feb 17:46:03 17:52:40 23° 64° (ENE) 17:59:17
LilacSat-2 14 Feb 17:51:07 17:54:43 41° 261° (W) 17:58:21 437.200
STRAND 1 14 Feb 18:07:51 18:11:48 22° 94° (E) 18:15:43 437.568
SEEDS 14 Feb 18:08:50 18:09:26 10° 61° (ENE) 18:10:01 437.485
CUTE 1.7 + AOD 2 14 Feb 18:10:08 18:12:27 15° 64° (ENE) 18:14:47 437.475
HO-68 14 Feb 18:15:35 18:22:00 37° 63° (ENE) 18:28:26 435.675
GOMX 1 14 Feb 18:17:19 18:22:40 89° 75° (ENE) 18:27:44 467.674
AO-85 14 Feb 18:17:21 18:22:15 48° 244° (WSW) 18:26:44 145.980
PCSat 14 Feb 18:26:31 18:31:57 69° 59° (ENE) 18:37:21 145.827
CUBESAT XI-V 14 Feb 18:33:22 18:37:18 27° 292° (WNW) 18:41:14 437.345
CUTE-I 14 Feb 18:51:58 18:54:46 14° 270° (W) 18:57:36 437.470
CANX-2 14 Feb 18:54:08 18:58:11 48° 73° (ENE) 19:02:17 2200.000
CUBEBUG 2 14 Feb 18:57:27 18:59:44 14° 64° (ENE) 19:01:59 437.445
ISS 14 Feb 18:58:35 19:01:29 29° 24° (NNE) 19:04:22 145.825
RS-15 14 Feb 19:03:26 19:15:37 71° 53° (NE) 19:27:56 29.354- 29.394
DOVE 4 14 Feb 19:09:48 19:14:40 52° 260° (W) 19:19:17 437.250
Cosmos 2499 14 Feb 19:14:20 19:21:41 34° 69° (ENE) 19:28:30 435.465 / 435.565
COMPASS 1 14 Feb 19:16:36 19:20:30 41° 72° (ENE) 19:24:27 437.405
BRITE-PL 14 Feb 19:19:58 19:23:08 15° 270° (W) 19:26:15 437.365/2234.400
PRISM 14 Feb 19:20:41 19:24:26 32° 97° (E) 19:28:09 437.425
AIST 2 14 Feb 19:22:44 19:24:25 12° 322° (NW) 19:26:06 435.215
CINEMA 3 14 Feb 19:24:38 19:29:09 81° 76° (ENE) 19:33:31 145.822/145.860
ZACube-1 14 Feb 19:28:11 19:30:38 15° 65° (ENE) 19:33:04 437.345
FUNcube-1 14 Feb 19:34:05 19:36:45 17° 66° (ENE) 19:39:26 145.935
AAUSAT CUBESAT 2 14 Feb 19:39:46 19:43:51 63° 74° (ENE) 19:48:00 437.432
SEEDS 14 Feb 19:40:20 19:44:31 76° 259° (W) 19:48:44 437.485
GONETS M04 14 Feb 19:41:41 19:50:30 80° 266° (W) 19:59:20
CUTE 1.7 + AOD 2 14 Feb 19:43:46 19:47:52 51° 260° (W) 19:52:01 437.475
STRAND 1 14 Feb 19:46:15 19:51:10 46° 290° (WNW) 19:56:04 437.568
Oscar 11 14 Feb 19:57:08 20:01:10 41° 72° (ENE) 20:05:14 145.826/435.025
GOMX 1 14 Feb 20:00:04 20:01:15 11° 271° (W) 20:02:26 467.674
HO-68 14 Feb 20:02:45 20:09:32 45° 261° (W) 20:16:24 435.675
DELFI C3 14 Feb 20:11:13 20:14:42 30° 70° (ENE) 20:18:13 145.870
PCSat 14 Feb 20:11:26 20:14:44 17° 256° (WSW) 20:18:03 145.827
UWE-3 14 Feb 20:20:46 20:24:59 85° 75° (ENE) 20:29:09 435.000/436.395/437.385
AIST 1 14 Feb 20:23:26 20:27:30 38° 77° (ENE) 20:31:30
CUBEBUG 2 14 Feb 20:31:49 20:35:58 51° 260° (W) 20:40:04 437.445
CANX-2 14 Feb 20:32:04 20:34:20 14° 269° (W) 20:36:37 2200.000
HUMSAT D 14 Feb 20:34:43 20:37:58 23° 68° (ENE) 20:41:14 437.325/437.525
ISS 14 Feb 20:34:56 20:38:00 39° 222° (SW) 20:41:02 145.825
COMPASS 1 14 Feb 20:53:42 20:56:17 16° 268° (W) 20:58:53 437.405
PRISM 14 Feb 20:56:25 20:59:35 21° 294° (WNW) 21:02:44 437.425
ESTCUBE 1 14 Feb 20:59:51 21:01:28 12° 61° (ENE) 21:03:05 437.505/2401.250
ANTELSAT 14 Feb 21:01:39 21:02:14 10° 90° (E) 21:02:48 437.575/2403.000
ZACube-1 14 Feb 21:02:34 21:06:34 45° 261° (W) 21:10:34 437.345
TIGRISAT 14 Feb 21:05:57 21:07:12 11° 90° (E) 21:08:28 435.000
FUNcube-1 14 Feb 21:08:47 21:12:43 40° 262° (W) 21:16:38 145.935
PHONESAT 2.4 14 Feb 21:18:55 21:20:01 11° 147° (SSE) 21:21:08 2401.200-2431.200
AAUSAT CUBESAT 2 14 Feb 21:19:00 21:19:47 10° 271° (W) 21:20:34 437.432
